Weather History for Omaha, NE

Change the Weather History Date:

Tuesday, January 28, 2014

  Actual Average Record
Temperature  
Mean Temperature 7 °F 24 °F  
Max Temperature 21 °F 34 °F 59 °F (1931)
Min Temperature -8 °F 14 °F -20 °F (1873)
Degree Days  
Heating Degree Days 58 41  
Month to date heating degree days 1238 1169  
Since 1 July heating degree days 3782 3648  
Cooling Degree Days 0 0  
Month to date cooling degree days 0 0  
Year to date cooling degree days 0 0  
Moisture  
Dew Point -7 °F    
Average Humidity 61    
Maximum Humidity 91    
Minimum Humidity 31    
Precipitation  
Precipitation 0.00 in 0.03 in 0.95 in (1891)
Month to date precipitation 0.11 0.64  
Year to date precipitation 0.11 0.64  
Snow  
Snow 0.00 in 0.20 in - ()
Month to date snowfall 1.5 5.4  
Since 1 July snowfall 5.0 14.4  
Snow Depth 0.00 in    
Sea Level Pressure  
Sea Level Pressure 30.44 in    
Wind  
Wind Speed 5 mph (West)    
Max Wind Speed 20 mph    
Max Gust Speed 24 mph    
Visibility 10 miles    
Events Fog    
T = Trace of Precipitation, MM = Missing Value Source: NWS Daily Summary

Daily Weather History Graph

Daily Weather History Graph

Search for Another Location

Airport:

Trip Planner

Search our weather history database for the weather conditions in past years. The results will help you decide how hot, cold, wet, or windy it might be!

Date:

Astronomy

Jan. 28, 2014 Rise Set
Actual Time 7:38 AM CST 5:35 PM CST
Civil Twilight 7:09 AM CST 6:04 PM CST
Nautical Twilight 6:35 AM CST 6:37 PM CST
Astronomical Twilight 6:03 AM CST 7:10 PM CST
Moon 5:21 AM CST (1/28) 3:25 PM CST (1/28)
Length of Visible Light 10h 55m
Length of Day
9h 56m
Waning Crescent, 7% of the Moon is Illuminated
Jan 28
Waning Crescent
Jan 30
New
Feb 6
First Quarter
Feb 14
Full
Feb 22
Last Quarter

Hourly Weather History & Observations

Time (CST) Temp. Windchill Dew Point Humidity Pressure Visibility Wind Dir Wind Speed Gust Speed Precip Events Conditions
12:52 AM -0.0 °F - -9.0 °F 66% 30.56 in 10.0 mi Calm Calm - N/A   Clear
1:52 AM -0.0 °F - -9.0 °F 66% 30.55 in 10.0 mi Calm Calm - N/A   Clear
2:52 AM -0.0 °F - -9.0 °F 66% 30.54 in 10.0 mi Calm Calm - N/A   Clear
3:52 AM -0.0 °F -11.6 °F -8.0 °F 69% 30.53 in 10.0 mi SSE 5.8 mph - N/A   Clear
4:52 AM -0.0 °F -7.9 °F -9.0 °F 66% 30.53 in 10.0 mi SE 3.5 mph - N/A   Clear
5:52 AM -6.0 °F -16.9 °F -9.9 °F 83% 30.53 in 10.0 mi North 4.6 mph - N/A   Clear
6:52 AM -7.1 °F -15.9 °F -11.0 °F 83% 30.53 in 10.0 mi NW 3.5 mph - N/A   Clear
7:52 AM -5.1 °F - -8.0 °F 87% 30.53 in 10.0 mi Calm Calm - N/A Fog Patches of Fog
8:18 AM -4.0 °F - -8.0 °F 83% 30.46 in 1.8 mi Calm Calm - N/A Fog Patches of Fog
8:23 AM -2.9 °F - -6.0 °F 87% 30.46 in 10.0 mi Calm Calm - N/A Fog Patches of Fog
8:52 AM -0.0 °F - -5.1 °F 79% 30.54 in 10.0 mi Calm Calm - N/A   Clear
9:52 AM 5.0 °F - -4.0 °F 66% 30.53 in 10.0 mi Calm Calm - N/A   Clear
10:52 AM 12.0 °F - -4.0 °F 49% 30.51 in 10.0 mi Calm Calm - N/A   Clear
11:52 AM 16.0 °F 5.3 °F -6.0 °F 38% 30.47 in 10.0 mi NW 8.1 mph 17.3 mph N/A   Clear
12:52 PM 18.0 °F 2.2 °F -7.1 °F 33% 30.44 in 10.0 mi West 18.4 mph - N/A   Partly Cloudy
1:52 PM 19.0 °F 5.6 °F -7.1 °F 31% 30.41 in 10.0 mi West 13.8 mph - N/A   Partly Cloudy
2:52 PM 19.9 °F 5.7 °F -8.0 °F 29% 30.38 in 10.0 mi WNW 16.1 mph - N/A   Partly Cloudy
3:52 PM 19.9 °F 7.9 °F -8.0 °F 29% 30.37 in 10.0 mi West 11.5 mph - N/A   Partly Cloudy
4:52 PM 19.0 °F 5.0 °F -8.0 °F 30% 30.36 in 10.0 mi WNW 15.0 mph 19.6 mph N/A   Partly Cloudy
5:52 PM 12.9 °F 3.8 °F -8.0 °F 39% 30.37 in 10.0 mi NNW 5.8 mph - N/A   Clear
6:52 PM 14.0 °F - -5.1 °F 43% 30.36 in 10.0 mi Calm Calm - N/A   Clear
7:52 PM 10.0 °F 3.6 °F -7.1 °F 46% 30.35 in 10.0 mi ESE 3.5 mph - N/A   Clear
8:52 PM 9.0 °F - -2.9 °F 59% 30.34 in 10.0 mi Calm Calm - N/A   Clear
9:52 PM 8.1 °F -0.5 °F -4.0 °F 58% 30.33 in 10.0 mi SSE 4.6 mph - N/A   Clear
10:52 PM 7.0 °F -1.7 °F -4.0 °F 61% 30.32 in 10.0 mi SSE 4.6 mph - N/A   Clear
11:52 PM 7.0 °F -3.3 °F -5.1 °F 58% 30.30 in 10.0 mi SSE 5.8 mph - N/A   Clear